Back to catalog

STARLINK-34625

AliveCommunicationsVLEO
NORAD 66154·PAYLOAD·🇺🇸 United States

Launched Oct 25, 2025 from Cape Canaveral Space Force Station

Loading…

Next Passes (next 24 hours)

TLE

FreshSource: CelesTrak SupGP

Epoch: Sep 14, 2026, 22:57 UTC

1 66154C 25240J   26257.95673611  .00045945  00000+0  13575-2 0  2571
2 66154  53.1569 261.6417 0001286  89.3496 317.9249 15.34366685    19

Track STARLINK-34625 in real time with AllMySat

Download on the App Store